User: anonymous   Login
Location: Unspecified
(0.0000°N, 0.0000°E)
Time: 06:41:31
(UTC+00:00)
Language:

Hubble Space Telescope - Orbit

View from above orbital plane
View from above orbital plane
View from above satellite
View from above satellite

Ground track
Ground track

The orbit data is extracted from the following two-line orbital elements,

1 20580U 90037B   18293.44464789  .00000499  00000-0  19553-4 0  9992
2 20580  28.4706   7.0392 0002919  50.9139  53.6810 15.09115574364401
Epoch (UTC): 20 October 2018 10:40:17
Eccentricity: 0.0002919
inclination: 28.4706°
perigee height: 537 km
apogee height: 541 km
right ascension of ascending node: 7.0392°
argument of perigee: 50.9139°
revolutions per day: 15.09115574
mean anomaly at epoch: 53.6810°
orbit number at epoch: 36440

The dashed part of the orbit path shows where the satellite is in the earth's shadow,  

DLR